Location: Eastchurch
(51.4000°N, 0.8667°E)
Time: 23:39:12
(UTC+00:00)

Meteor 1-24 Rocket - Pass Details

Date: 19 January 2026
Orbit: 790 x 925 km, 81.3° (Epoch: 17 February)

Event Time Altitude Azimuth Distance (km) Brightness Sun altitude
Rises 18:52:30 0° 173° (S) 3,411 6.8 -22.6°
Reaches altitude 10° 18:54:56 10° 168° (SSE) 2,499 6.1 -23.0°
Enters shadow 18:59:10 43° 132° (SE) 1,218 4.2 -23.7°
